GLOBALSTAR M006 [-]

Last updated on July 6, 2021, 3:36 p.m. UTC

1 25307U 98023B   21187.20359184 -.00000042  00000-0  68481-3 0  9997
2 25307  51.9900 207.7348 0003676  29.5560  47.4741 11.58132225 49867
UTC
Height (km)
Latitude
Longitude
Inclination
Orbital Period
UTC large
Height (km)
Speed (km/s)
/
Latitude / Longitude
Inclination (degrees)
Orbital Period (minutes)
Azimuth
Elevation
Range (km)
Doppler Factor
iOS Compass Heading
iOS Angle